Dewpoint
20 16 14 12 13 11 10 13 13 13 8 9 10 10 11 13 17 19 26 34 36 40 45 48 51 50 52 49 60 61 64 71 71 69 68 68 66 67 67 67 70 73 71 71
16 14 13 11 12 13 13 14 17 16 13 13 12 11 12 13 16 19 25 30 32 37 39 46 53 52 53 57 58 64 65 67 69 68 70 65 64 62 64 64 74 72 73 72
13 12 13 13 14 14 15 16 17 16 16 19 15 13 15 13 15 17 22 25 25 31 37 43 49 52 52 53 60 59 65 69 72 71 68 69 70 67 64 65 67 71 73 73
11 13 12 13 14 13 15 16 16 17 18 11 18 10 14 15 16 17 20 21 27 36 38 44 48 52 51 47 55 55 66 72 72 73 72 73 70 64 61 64 64 69 73 72
10 12 12 14 13 13 14 16 18 18 17 18 18 19 22 22 16 19 24 29 33 31 37 45 46 46 39 45 49 59 68 71 72 74 73 69 70 63 67 62 72 71 70 65
10 11 11 16 12 13 16 17 20 19 16 13 16 25 24 27 31 23 25 27 28 28 42 47 41 43 42 44 54 62 67 68 69 70 71 72 70 67 58 60 56 55 54 58
15 13 17 17 16 15 19 22 16 15 13 11 15 20 27 38 41 29 31 36 37 36 38 40 42 39 48 49 52 59 62 64 65 64 64 63 65 64 63 60 52 56 48 47
20 17 18 19 18 19 20 21 15 16 11 8 13 17 24 34 34 36 36 38 40 40 42 44 47 49 49 52 54 57 58 57 58 58 59 61 60 54 54 60 59 56 54 54
22 19 17 18 20 20 21 18 20 19 27 21 17 24 30 32 34 36 38 40 42 43 45 45 46 48 50 51 53 53 53 52 53 54 55 56 56 56 55 57 58 52 61 55
28 25 18 17 19 20 21 26 22 22 26 26 23 25 20 31 33 37 39 41 42 42 42 42 43 45 45 47 48 48 48 49 49 50 53 51 51 51 52 53 54 55 56 55
30 31 25 18 18 18 19 26 31 29 25 24 24 29 37 35 34 38 39 40 41 40 39 39 40 41 41 42 43 45 44 44 45 46 47 49 49 49 50 52 52 53 56 53
30 32 31 22 18 20 21 26 33 36 32 29 30 29 36 45 34 38 38 39 38 38 38 38 38 39 39 40 40 41 42 41 42 43 44 45 47 48 52 51 53 52 51 51
34 31 34 32 38 33 28 29 30 37 37 32 31 33 36 41 37 37 38 38 38 38 38 38 38 38 38 39 39 39 40 39 40 40 40 44 46 47 49 50 51 50 50 50
40 33 34 32 30 33 29 28 29 34 36 34 35 37 37 36 36 37 38 38 37 38 39 39 40 39 39 39 39 39 38 38 38 39 40 43 46 47 47 49 49 49 49 49
38 35 34 40 34 35 34 27 29 26 26 26 25 33 37 39 39 39 38 38 37 37 37 38 39 40 39 39 39 38 39 38 40 40 40 43 44 45 46 47 48 48 48 47
42 36 35 34 32 35 37 31 32 31 29 27 26 33 39 42 39 39 38 37 36 37 36 37 38 39 39 39 39 39 39 39 40 41 40 42 43 44 45 45 45 46 46 46
43 37 35 31 33 29 28 30 29 28 26 25 23 27 32 35 35 35 34 35 35 37 36 37 38 38 40 40 40 39 39 40 40 40 41 41 43 42 42 42 42 42 44 45
39 38 33 31 31 25 30 28 22 24 27 27 31 33 33 32 35 34 35 37 38 38 38 37 36 38 39 39 39 40 39 40 39 40 40 41 40 40 41 41 42 43 42 43
40 38 36 33 26 28 28 28 22 24 29 31 31 31 33 34 36 37 37 37 37 36 35 35 36 37 39 39 40 40 39 40 39 39 40 39 39 39 40 40 42 43 42 42
37 37 36 29 28 21 31 35 36 34 31 36 35 36 36 34 34 40 38 35 34 35 34 35 37 37 39 40 40 39 38 38 38 38 38 38 39 40 39 40 42 42 42 42
32 34 34 29 31 33 36 35 36 31 38 38 37 37 36 36 37 37 34 34 35 34 35 36 36 36 38 38 37 37 37 37 37 37 38 40 41 42 42 43 43 45 44 42
30 32 33 32 31 32 37 34 35 40 41 39 37 36 34 34 33 33 33 35 35 35 34 34 34 35 36 36 35 35 35 36 37 38 38 40 41 40 40 43 43 45 46 45
31 32 37 33 39 43 43 42 42 42 38 36 35 34 32 33 32 33 34 34 34 34 33 33 33 34 34 34 34 33 34 36 37 38 39 40 40 41 41 44 43 42 45 44
35 35 37 38 40 40 40 40 39 38 35 33 32 32 32 32 32 33 33 33 32 31 32 32 32 33 33 34 34 34 34 34 36 37 38 38 39 40 42 43 43 43 43 44
34 36 39 38 38 38 38 38 36 34 31 29 29 30 31 32 33 33 33 32 31 32 32 32 33 35 34 35 33 33 33 34 35 36 36 38 39 40 41 43 43 44 45 45
38 38 39 38 39 39 38 36 34 31 29 29 29 30 31 31 32 33 33 33 33 33 34 35 35 34 34 30 30 31 31 32 33 34 34 35 37 39 40 43 43 42 41 41
Lifted_Index
7 6 6 5 5 4 3 2 1 1 1 0 1 1 1 0 0 0 -0 -1 -0 -0 -1 -0 0 1 2 2 2 1 -1 -4 -7 -7 -7 -7 -6 -6 -6 -6 -7 -7 -7 -7
6 6 5 5 4 4 4 3 2 1 0 0 0 0 0 0 0 0 -0 -1 -0 -0 -1 -1 0 1 2 2 2 1 -1 -4 -6 -7 -7 -6 -6 -6 -6 -6 -7 -7 -7 -7
5 5 4 4 4 4 4 3 2 1 0 -0 -0 -0 -0 -0 -0 -0 -0 -0 0 0 -0 -1 -0 1 2 2 2 1 -1 -4 -6 -7 -7 -7 -7 -6 -6 -6 -7 -7 -7 -7
4 4 4 4 4 4 3 2 1 1 0 0 -0 0 0 0 -0 -0 -0 -0 -0 -0 -0 -1 -1 0 2 2 2 1 -3 -6 -7 -7 -7 -7 -7 -7 -6 -6 -7 -7 -7 -7
4 4 3 3 4 3 3 1 0 0 0 0 0 0 0 0 0 -0 -0 -1 -1 -0 -1 -1 -1 0 2 3 2 -1 -4 -6 -8 -8 -8 -8 -8 -7 -6 -6 -6 -5 -5 -4
3 3 3 3 3 3 2 0 -0 -0 -0 0 0 0 0 -0 -0 -0 -1 -1 -1 -0 -0 -0 1 2 3 3 1 -2 -5 -6 -7 -8 -8 -8 -8 -7 -5 -4 -3 -2 -1 -1
2 2 2 2 2 2 0 -0 -0 -0 -0 -0 0 0 -0 -0 -0 -1 -1 -1 -1 -0 -0 0 1 2 2 1 -0 -3 -4 -5 -6 -6 -6 -6 -6 -5 -4 -2 -1 -1 -0 0
0 0 0 1 1 1 -0 -1 -0 -0 -0 -0 -0 -0 -0 -0 -0 -1 -2 -2 -1 -1 -1 -0 0 0 -0 -1 -2 -3 -3 -3 -3 -3 -3 -2 -2 -2 -2 -1 -0 -0 0 1
-1 -0 -0 0 1 0 -0 -0 -0 -0 -0 -0 -0 -0 -0 -1 -1 -1 -2 -2 -2 -2 -1 -0 -0 -0 -0 -1 -1 -1 -0 0 0 0 1 1 1 1 1 1 2 2 2 2
-1 -0 -0 0 0 0 0 -0 -1 -1 -1 -0 -0 -0 -0 -1 -1 -1 -2 -2 -2 -1 -1 0 1 1 1 1 1 2 2 2 3 3 3 3 3 4 4 4 4 4 4 4
-0 -0 -0 -0 0 0 0 -0 -1 -1 -1 -1 -0 -0 -0 -0 -1 -1 -1 -1 -1 -0 0 1 1 2 2 3 3 3 4 4 4 4 5 5 5 5 6 6 6 6 6 6
-0 -1 -1 -0 -0 -0 -0 -1 -1 -1 -1 -1 -1 -1 -0 -1 -1 -1 -1 -1 -0 0 1 1 2 3 3 4 4 4 5 5 5 6 6 6 6 7 7 7 7 7 7 7
-1 -1 -1 -1 -0 -1 -1 -1 -1 -1 -1 -1 -1 -1 -0 -1 -1 -1 -0 -0 0 1 1 2 2 3 4 4 5 5 6 6 6 7 7 7 7 8 8 8 8 8 8 8
-1 -1 -1 -1 -1 -1 -1 -1 -1 -1 -1 -1 -1 -0 -0 -0 -1 -0 -0 -0 0 1 1 2 3 3 4 5 5 6 6 7 7 8 8 8 9 9 9 9 9 9 9 9
-1 -1 -1 -1 -1 -1 -1 -1 -1 -1 -1 -1 -1 -1 -1 -0 -0 -0 -0 -0 0 1 2 3 4 4 5 5 6 6 7 8 9 9 10 10 10 10 10 10 10 11 11 11
-1 -1 -1 -1 -0 -0 -0 -1 -1 -1 -1 -1 -1 -1 -1 -0 -0 -0 0 1 1 2 3 4 5 5 6 6 6 7 8 10 10 11 11 11 11 11 11 12 12 12 12 13
-1 -1 -1 -0 -0 -0 -0 -0 -1 -0 -0 0 -0 -0 -0 0 0 1 1 2 2 3 4 5 6 6 7 7 8 9 10 11 11 11 11 11 11 12 12 13 13 13 13 14
-1 -1 -1 -0 -0 0 0 1 1 1 1 1 1 1 1 1 1 2 3 3 4 5 5 6 7 8 8 9 10 10 11 12 12 11 11 11 12 13 13 13 14 14 14 14
-1 -1 -0 0 0 1 1 1 1 1 1 1 1 1 1 2 2 3 4 5 5 6 7 8 9 9 10 10 11 11 12 11 11 11 11 11 12 13 14 14 14 14 14 14
-0 -0 0 0 0 1 1 1 1 1 1 1 2 2 2 2 3 4 5 6 7 8 9 10 10 11 11 11 12 11 11 10 10 10 11 12 13 14 14 14 14 14 14 14
0 0 0 0 0 1 1 1 1 1 1 2 2 3 3 3 4 5 7 8 9 9 10 11 11 11 12 12 12 11 10 10 10 11 12 12 13 14 15 15 14 14 13 13
1 1 1 1 1 1 1 1 1 2 2 3 3 4 5 5 6 7 8 9 10 10 11 11 11 11 12 13 12 10 10 10 11 11 12 12 14 14 15 14 13 13 12 11
1 1 1 1 1 1 2 2 2 3 3 4 5 6 6 7 8 9 10 10 11 11 11 11 11 11 12 12 12 10 10 11 11 11 11 12 14 14 14 13 12 12 11 10
1 1 1 1 2 2 2 3 3 4 5 6 7 7 8 9 10 10 11 11 11 11 12 12 12 11 12 12 12 11 11 11 11 11 11 12 14 14 14 12 11 10 10 9
0 1 1 2 2 3 3 4 5 5 6 7 8 9 10 10 11 11 11 11 12 12 12 13 12 12 12 12 12 12 12 12 11 10 11 12 13 13 13 11 10 9 8 8
0 0 1 1 2 3 3 4 5 6 7 8 9 10 10 11 11 12 12 12 12 12 13 13 13 12 12 12 12 12 12 12 11 10 10 11 13 13 12 10 9 8 8 7